TimeCDT,TemperatureF,Dew PointF,Humidity,Sea Level PressureIn,VisibilityMPH,Wind Direction,Wind SpeedMPH,Gust SpeedMPH,PrecipitationIn,Events,Conditions,WindDirDegrees,DateUTC
12:53 AM,73.0,69.1,87,29.80,7.0,South,20.7,28.8,N/A,,Mostly Cloudy,170,2013-05-27 05:53:00
1:53 AM,73.0,69.1,87,29.78,7.0,South,20.7,26.5,N/A,,Overcast,170,2013-05-27 06:53:00
2:53 AM,72.0,69.1,91,29.77,7.0,SSE,18.4,28.8,N/A,,Overcast,160,2013-05-27 07:53:00
3:53 AM,72.0,69.1,91,29.75,7.0,South,21.9,28.8,N/A,,Mostly Cloudy,170,2013-05-27 08:53:00
4:53 AM,72.0,69.1,91,29.75,7.0,South,20.7,27.6,N/A,,Overcast,170,2013-05-27 09:53:00
5:53 AM,72.0,69.1,91,29.73,7.0,SSE,19.6,26.5,N/A,,Overcast,160,2013-05-27 10:53:00
6:53 AM,72.0,69.1,91,29.73,6.0,SSE,17.3,25.3,N/A,,Overcast,160,2013-05-27 11:53:00
7:53 AM,73.0,69.1,87,29.72,8.0,South,23.0,26.5,N/A,,Mostly Cloudy,170,2013-05-27 12:53:00
8:14 AM,73.4,69.8,88,29.76,9.0,South,18.4,26.5,N/A,,Mostly Cloudy,180,2013-05-27 13:14:00
8:49 AM,73.4,69.8,88,29.76,10.0,South,19.6,26.5,N/A,,Mostly Cloudy,180,2013-05-27 13:49:00
8:53 AM,73.9,70.0,87,29.72,10.0,South,19.6,26.5,N/A,,Mostly Cloudy,190,2013-05-27 13:53:00
9:14 AM,75.2,71.6,89,29.75,10.0,SSW,21.9,28.8,N/A,,Mostly Cloudy,200,2013-05-27 14:14:00
9:37 AM,77.0,71.6,83,29.74,10.0,South,21.9,28.8,N/A,,Mostly Cloudy,190,2013-05-27 14:37:00
9:53 AM,78.1,70.0,76,29.70,10.0,South,29.9,38.0,N/A,,Mostly Cloudy,190,2013-05-27 14:53:00
10:30 AM,75.2,69.8,83,29.76,10.0,South,27.6,36.8,N/A,,Mostly Cloudy,180,2013-05-27 15:30:00
10:53 AM,75.0,69.1,82,29.73,10.0,South,31.1,38.0,N/A,,Mostly Cloudy,180,2013-05-27 15:53:00
11:53 AM,75.9,70.0,82,29.71,10.0,South,21.9,32.2,N/A,,Mostly Cloudy,180,2013-05-27 16:53:00
12:53 PM,80.1,71.1,74,29.69,10.0,South,31.1,38.0,N/A,,Mostly Cloudy,170,2013-05-27 17:53:00
1:33 PM,82.4,71.6,70,29.73,10.0,South,28.8,42.6,N/A,,Mostly Cloudy,180,2013-05-27 18:33:00
1:53 PM,82.0,70.0,67,29.69,10.0,South,23.0,41.4,N/A,,Mostly Cloudy,180,2013-05-27 18:53:00
2:53 PM,80.1,70.0,71,29.70,10.0,SSE,17.3,24.2,N/A,,Overcast,150,2013-05-27 19:53:00
3:53 PM,80.1,69.1,69,29.68,10.0,SSE,17.3,28.8,N/A,,Overcast,160,2013-05-27 20:53:00
4:53 PM,80.1,70.0,71,29.65,10.0,SSE,20.7,29.9,N/A,,Mostly Cloudy,150,2013-05-27 21:53:00
5:53 PM,79.0,69.1,72,29.62,10.0,SSE,23.0,28.8,N/A,,Mostly Cloudy,160,2013-05-27 22:53:00
6:53 PM,78.1,69.1,74,29.60,10.0,SSE,23.0,31.1,N/A,,Mostly Cloudy,160,2013-05-27 23:53:00
7:53 PM,77.0,68.0,74,29.59,10.0,South,20.7,28.8,N/A,,Mostly Cloudy,170,2013-05-28 00:53:00
8:53 PM,75.0,68.0,79,29.57,9.0,South,26.5,36.8,N/A,,Mostly Cloudy,180,2013-05-28 01:53:00
9:53 PM,75.0,68.0,79,29.62,10.0,South,19.6,31.1,N/A,,Mostly Cloudy,170,2013-05-28 02:53:00
10:53 PM,75.0,68.0,79,29.65,10.0,South,15.0,-,N/A,,Mostly Cloudy,170,2013-05-28 03:53:00
11:53 PM,73.0,68.0,84,29.65,10.0,South,16.1,-,N/A,,Mostly Cloudy,170,2013-05-28 04:53:00